Temp
-17 -16 -15 -15 -15 -14 -14 -14 -13 -13 -13 -13 -15 -15 -15 -14 -15 -15 -15 -16 -15 -15 -16 -16 -15 -15 -15 -15 -15 -15 -15 -15 -15 -15 -15 -15 -16 -16 -16 -16 -16 -17 -17
-17 -17 -17 -17 -16 -16 -15 -15 -16 -15 -16 -16 -16 -15 -15 -15 -15 -15 -16 -16 -16 -15 -16 -16 -16 -16 -16 -15 -16 -15 -16 -16 -16 -16 -16 -16 -16 -17 -17 -17 -17 -17 -18
-18 -18 -17 -17 -17 -17 -17 -17 -17 -17 -17 -17 -17 -17 -17 -17 -17 -17 -17 -17 -17 -16 -16 -16 -16 -16 -17 -16 -16 -17 -17 -17 -17 -17 -17 -17 -17 -17 -17 -18 -18 -18 -19
-18 -18 -18 -18 -18 -18 -18 -17 -17 -17 -18 -18 -18 -18 -18 -17 -18 -17 -17 -17 -18 -17 -16 -17 -17 -16 -17 -17 -17 -17 -17 -17 -18 -17 -18 -18 -18 -18 -18 -19 -19 -19 -20
-19 -19 -19 -19 -19 -19 -19 -18 -18 -18 -18 -17 -17 -18 -18 -17 -17 -17 -18 -17 -18 -18 -18 -17 -18 -18 -17 -17 -17 -18 -18 -18 -18 -18 -18 -19 -19 -19 -18 -19 -19 -20 -20
-20 -19 -19 -19 -19 -19 -19 -19 -19 -19 -19 -18 -18 -18 -18 -18 -18 -18 -18 -18 -18 -18 -18 -18 -18 -18 -18 -18 -18 -18 -18 -18 -19 -19 -19 -19 -19 -19 -20 -20 -20 -20 -20
-21 -21 -20 -19 -19 -19 -20 -19 -19 -19 -20 -19 -19 -18 -18 -18 -18 -18 -18 -18 -18 -18 -18 -18 -18 -18 -18 -18 -18 -18 -18 -19 -19 -19 -19 -19 -19 -20 -20 -20 -20 -21 -21
-21 -22 -22 -22 -21 -21 -20 -20 -21 -20 -20 -20 -20 -19 -19 -18 -18 -18 -18 -19 -18 -19 -18 -18 -18 -18 -18 -18 -18 -19 -19 -19 -19 -19 -20 -20 -20 -20 -21 -21 -21 -22 -22
-22 -22 -22 -22 -22 -22 -21 -21 -21 -21 -21 -21 -21 -20 -20 -19 -19 -19 -19 -19 -19 -19 -19 -19 -19 -18 -18 -19 -19 -19 -19 -19 -19 -20 -20 -19 -21 -21 -21 -21 -21 -22 -22
-24 -23 -23 -22 -22 -22 -22 -22 -21 -20 -20 -21 -21 -21 -20 -22 -22 -21 -20 -20 -20 -19 -19 -19 -19 -19 -19 -19 -19 -20 -20 -20 -20 -21 -21 -21 -21 -21 -21 -21 -21 -22 -22
-26 -25 -24 -23 -23 -23 -23 -23 -22 -22 -21 -21 -20 -21 -21 -21 -21 -21 -21 -20 -19 -19 -20 -20 -19 -19 -20 -20 -20 -20 -20 -20 -20 -21 -21 -21 -22 -22 -22 -22 -22 -22 -22
-27 -27 -26 -25 -24 -24 -24 -23 -24 -22 -22 -22 -21 -21 -22 -22 -22 -21 -21 -21 -21 -21 -21 -20 -20 -21 -21 -21 -20 -20 -21 -21 -21 -21 -21 -22 -22 -22 -22 -22 -22 -22 -22
-28 -28 -27 -27 -26 -26 -24 -24 -25 -25 -23 -22 -22 -21 -22 -22 -22 -22 -22 -21 -21 -21 -21 -21 -22 -22 -22 -21 -21 -21 -21 -21 -21 -22 -22 -22 -23 -23 -23 -23 -23 -23 -24
-29 -28 -28 -27 -27 -27 -27 -26 -26 -26 -26 -25 -24 -23 -23 -23 -23 -22 -22 -21 -22 -21 -22 -22 -22 -22 -22 -21 -21 -21 -21 -21 -22 -22 -22 -22 -23 -23 -23 -24 -24 -24 -25
-31 -30 -29 -29 -28 -27 -27 -27 -27 -27 -26 -26 -26 -25 -24 -24 -25 -24 -22 -22 -22 -22 -23 -23 -22 -22 -22 -22 -22 -21 -22 -22 -22 -22 -22 -23 -23 -23 -23 -24 -24 -25 -25
-31 -31 -31 -30 -30 -29 -28 -28 -27 -27 -27 -26 -26 -25 -25 -26 -26 -26 -25 -23 -23 -22 -22 -23 -23 -23 -22 -22 -22 -22 -22 -23 -22 -22 -23 -23 -23 -24 -24 -25 -25 -25 -26
-32 -32 -31 -31 -31 -30 -30 -29 -28 -29 -28 -27 -27 -25 -25 -26 -26 -26 -26 -25 -24 -23 -22 -22 -22 -22 -22 -22 -22 -22 -23 -23 -23 -23 -23 -24 -24 -24 -25 -25 -26 -26 -27
-31 -31 -31 -31 -31 -31 -30 -30 -30 -30 -30 -28 -28 -26 -25 -26 -26 -26 -25 -26 -24 -24 -23 -23 -23 -23 -23 -23 -23 -24 -23 -23 -23 -23 -23 -23 -24 -25 -26 -26 -26 -27 -27
-31 -31 -31 -31 -31 -31 -31 -31 -31 -31 -30 -30 -29 -28 -27 -26 -27 -26 -25 -26 -25 -25 -24 -24 -25 -25 -25 -25 -25 -25 -25 -25 -25 -24 -24 -24 -26 -26 -26 -27 -28 -28 -28
-31 -31 -31 -32 -32 -32 -32 -32 -32 -32 -31 -31 -31 -30 -29 -27 -26 -26 -26 -26 -25 -25 -24 -25 -25 -26 -25 -25 -25 -25 -25 -25 -26 -26 -26 -26 -26 -27 -27 -28 -29 -29 -30
-32 -32 -32 -32 -32 -32 -32 -33 -33 -32 -32 -32 -31 -31 -31 -30 -28 -27 -27 -27 -26 -26 -26 -26 -26 -25 -25 -25 -25 -26 -25 -25 -25 -26 -27 -28 -28 -28 -29 -30 -30 -30 -31
-33 -33 -33 -33 -33 -34 -34 -34 -34 -34 -34 -33 -33 -32 -32 -31 -31 -30 -29 -29 -28 -28 -28 -27 -27 -27 -26 -26 -27 -26 -27 -27 -28 -29 -29 -30 -30 -30 -31 -31 -31 -31 -31
-32 -33 -34 -34 -34 -34 -33 -33 -33 -33 -33 -33 -33 -33 -33 -33 -32 -32 -31 -31 -30 -30 -29 -29 -28 -28 -28 -28 -28 -29 -29 -30 -30 -30 -30 -31 -31 -31 -32 -32 -32 -32 -32
-32 -32 -32 -33 -33 -33 -33 -33 -32 -32 -33 -33 -33 -33 -33 -33 -33 -33 -32 -32 -31 -31 -32 -32 -31 -30 -30 -30 -30 -30 -31 -31 -31 -31 -31 -32 -32 -32 -33 -33 -33 -33 -34
-32 -32 -32 -32 -32 -32 -32 -32 -32 -32 -32 -32 -32 -32 -33 -33 -33 -33 -33 -33 -33 -33 -33 -33 -32 -32 -32 -32 -31 -31 -31 -31 -32 -32 -33 -33 -33 -33 -33 -34 -34 -35 -35
-32 -32 -32 -32 -31 -32 -32 -32 -32 -32 -32 -32 -32 -32 -32 -33 -33 -33 -33 -33 -33 -33 -33 -33 -32 -32 -32 -32 -32 -32 -32 -32 -33 -33 -34 -34 -34 -35 -35 -35 -35 -35 -35
Height
5637 5639 5640 5640 5641 5641 5640 5640 5640 5639 5639 5638 5637 5639 5642 5645 5647 5649 5652 5654 5655 5654 5653 5652 5652 5653 5652 5653 5653 5653 5653 5653 5653 5653 5653 5653 5653 5654 5654 5652 5651 5651 5649
5618 5616 5616 5618 5619 5620 5620 5619 5621 5624 5624 5627 5627 5627 5628 5628 5630 5632 5634 5636 5638 5637 5637 5637 5636 5636 5636 5636 5636 5636 5637 5637 5637 5637 5635 5636 5637 5637 5637 5635 5633 5633 5631
5597 5598 5597 5598 5599 5600 5600 5600 5600 5601 5604 5605 5607 5610 5612 5613 5613 5614 5615 5617 5617 5618 5619 5619 5620 5619 5620 5619 5621 5621 5620 5621 5622 5622 5621 5620 5621 5621 5621 5618 5618 5618 5617
5572 5572 5574 5576 5575 5575 5577 5578 5580 5581 5583 5585 5585 5585 5589 5591 5592 5592 5594 5595 5596 5595 5598 5599 5601 5602 5603 5603 5603 5603 5605 5605 5607 5605 5605 5606 5605 5605 5605 5604 5604 5603 5600
5551 5552 5552 5552 5551 5552 5554 5556 5557 5559 5559 5560 5561 5564 5565 5569 5572 5572 5572 5573 5574 5575 5577 5579 5582 5584 5584 5583 5584 5584 5585 5587 5588 5589 5587 5589 5589 5588 5589 5588 5588 5587 5583
5525 5527 5528 5527 5529 5527 5530 5532 5532 5533 5534 5537 5541 5541 5545 5549 5550 5551 5550 5551 5552 5554 5557 5559 5561 5562 5565 5565 5565 5566 5567 5568 5569 5570 5569 5569 5571 5571 5572 5571 5572 5571 5567
5493 5494 5496 5500 5502 5502 5499 5500 5505 5508 5510 5512 5516 5519 5523 5527 5527 5528 5529 5529 5530 5532 5535 5538 5541 5542 5544 5546 5546 5546 5548 5550 5549 5549 5551 5550 5552 5553 5554 5552 5552 5552 5550
5466 5466 5465 5467 5470 5472 5475 5474 5474 5480 5483 5486 5489 5493 5498 5502 5502 5504 5505 5507 5510 5513 5516 5519 5521 5522 5523 5524 5523 5525 5528 5529 5530 5529 5528 5529 5530 5533 5534 5533 5533 5533 5531
5433 5434 5435 5436 5439 5441 5443 5446 5448 5452 5458 5461 5465 5468 5471 5474 5476 5479 5478 5484 5490 5495 5496 5498 5501 5502 5502 5502 5503 5506 5506 5507 5508 5507 5505 5507 5508 5511 5514 5514 5514 5513 5512
5401 5401 5403 5404 5406 5408 5413 5417 5420 5422 5428 5435 5440 5444 5448 5451 5450 5455 5455 5459 5467 5471 5474 5477 5480 5482 5480 5481 5482 5485 5486 5486 5484 5485 5484 5487 5489 5491 5493 5494 5493 5491 5488
5369 5369 5368 5369 5372 5375 5380 5384 5388 5394 5402 5408 5415 5421 5424 5427 5427 5428 5431 5437 5444 5444 5449 5454 5457 5458 5458 5457 5460 5462 5464 5462 5462 5464 5467 5469 5469 5471 5472 5473 5472 5470 5467
5338 5337 5337 5336 5336 5340 5342 5349 5354 5361 5370 5377 5382 5391 5398 5399 5402 5403 5409 5413 5418 5420 5426 5430 5435 5433 5433 5435 5441 5441 5441 5443 5444 5446 5446 5448 5449 5449 5450 5449 5449 5449 5445
5308 5307 5306 5305 5305 5306 5308 5314 5319 5327 5335 5345 5352 5363 5369 5370 5373 5379 5383 5389 5395 5399 5403 5405 5408 5409 5413 5412 5418 5421 5421 5425 5424 5426 5428 5428 5428 5428 5427 5425 5425 5426 5421
5271 5272 5272 5273 5275 5276 5277 5283 5288 5296 5301 5310 5319 5330 5338 5344 5349 5354 5358 5364 5371 5377 5379 5383 5386 5385 5390 5392 5394 5401 5403 5405 5405 5405 5407 5407 5406 5406 5405 5405 5404 5403 5399
5237 5238 5237 5238 5240 5243 5246 5250 5255 5264 5270 5278 5290 5298 5311 5320 5324 5326 5331 5340 5347 5355 5360 5357 5362 5364 5369 5372 5375 5383 5383 5381 5384 5384 5385 5387 5387 5385 5382 5382 5382 5379 5376
5207 5207 5205 5204 5206 5208 5212 5220 5223 5230 5237 5248 5260 5270 5281 5290 5298 5305 5305 5313 5321 5330 5335 5337 5341 5344 5349 5352 5356 5359 5362 5362 5363 5364 5365 5366 5365 5363 5362 5359 5358 5356 5355
5179 5178 5175 5174 5175 5176 5180 5185 5195 5203 5206 5218 5227 5239 5251 5265 5273 5282 5285 5289 5298 5305 5314 5317 5319 5324 5329 5331 5335 5336 5338 5338 5340 5342 5345 5344 5343 5344 5340 5338 5337 5334 5331
5158 5155 5152 5151 5150 5152 5154 5159 5165 5173 5182 5189 5196 5207 5224 5235 5247 5257 5263 5267 5275 5286 5292 5295 5299 5302 5305 5306 5309 5311 5312 5314 5317 5319 5322 5322 5321 5320 5318 5315 5313 5311 5309
5140 5135 5131 5130 5129 5131 5135 5139 5144 5150 5159 5165 5172 5182 5196 5205 5217 5228 5235 5246 5255 5265 5271 5274 5281 5282 5282 5285 5288 5289 5291 5293 5295 5297 5300 5300 5300 5297 5294 5291 5289 5288 5286
5124 5118 5115 5113 5113 5114 5118 5123 5128 5133 5139 5145 5152 5160 5168 5179 5193 5205 5211 5220 5228 5242 5251 5256 5259 5260 5263 5266 5269 5272 5274 5278 5277 5276 5277 5278 5278 5275 5272 5270 5267 5265 5262
5113 5108 5106 5105 5104 5106 5109 5113 5116 5121 5125 5131 5137 5142 5149 5160 5170 5180 5188 5197 5209 5218 5227 5231 5232 5236 5242 5246 5249 5251 5253 5257 5258 5256 5255 5255 5255 5254 5251 5250 5247 5245 5242
5111 5106 5103 5102 5103 5105 5107 5109 5111 5114 5117 5120 5124 5129 5134 5143 5153 5161 5171 5179 5188 5194 5198 5205 5210 5214 5219 5222 5226 5230 5233 5235 5236 5236 5236 5236 5235 5233 5232 5231 5229 5225 5222
5113 5108 5106 5105 5106 5107 5108 5109 5111 5112 5113 5114 5117 5121 5128 5134 5141 5148 5154 5160 5167 5173 5179 5185 5191 5196 5199 5204 5207 5210 5214 5216 5216 5218 5219 5218 5217 5216 5215 5212 5210 5207 5203
5116 5113 5110 5109 5109 5109 5109 5109 5110 5110 5112 5114 5117 5120 5124 5130 5135 5139 5144 5150 5155 5161 5166 5169 5173 5177 5181 5186 5191 5195 5197 5199 5201 5202 5202 5201 5200 5199 5198 5196 5194 5190 5185
5118 5115 5112 5110 5109 5109 5108 5108 5109 5110 5112 5114 5116 5120 5123 5127 5131 5134 5138 5141 5144 5148 5153 5157 5161 5165 5170 5175 5178 5180 5183 5184 5186 5187 5187 5185 5184 5183 5182 5180 5177 5173 5167
5121 5117 5114 5111 5110 5109 5109 5109 5109 5110 5111 5113 5115 5117 5120 5124 5127 5130 5132 5135 5138 5142 5146 5150 5154 5157 5160 5163 5165 5168 5171 5171 5172 5172 5172 5171 5171 5169 5167 5164 5160 5156 5149
Wind_Speed
52 57 61 65 64 63 64 69 72 70 65 64 61 60 57 61 62 61 59 60 57 55 55 54 55 54 51 50 52 53 54 55 56 56 57 57 60 60 59 56 58 60 64
62 60 61 63 65 68 70 69 68 66 61 59 63 63 61 65 67 71 72 67 63 58 56 54 54 57 58 56 56 57 58 58 59 59 56 57 58 57 59 60 61 65 59
70 71 71 71 74 75 75 71 72 70 68 67 70 70 69 70 69 70 70 69 65 59 59 57 57 58 60 63 62 61 59 60 58 56 55 56 57 61 62 57 58 56 54
78 72 71 73 76 75 73 71 71 72 69 69 73 74 75 75 76 75 74 71 70 64 63 65 61 63 64 65 65 65 66 64 63 60 58 61 60 60 59 58 55 53 53
82 78 76 75 73 72 72 73 74 75 78 79 80 79 77 77 76 80 83 78 75 73 69 71 72 71 70 68 68 68 69 67 68 70 61 59 60 60 62 61 58 56 58
81 84 91 91 86 82 78 81 83 88 88 84 81 81 82 83 84 83 86 88 81 79 77 75 75 73 78 74 72 72 71 69 68 66 64 60 57 58 60 61 59 58 61
82 84 89 92 95 97 100 104 93 81 86 91 87 83 89 90 93 93 85 76 73 74 76 80 83 77 76 80 78 78 76 72 68 69 67 63 63 63 63 61 61 61 64
91 90 88 90 88 88 89 86 82 82 80 87 91 90 94 94 88 88 80 76 77 74 70 74 75 77 82 85 84 81 72 69 69 68 70 70 72 70 65 59 61 59 63
100 96 97 100 88 81 86 87 82 77 78 83 89 90 93 84 81 82 80 82 86 84 76 72 77 78 86 88 79 76 71 69 67 71 75 75 63 65 65 67 61 64 67
102 104 104 105 100 93 85 83 86 85 81 82 84 83 80 69 67 71 79 89 91 89 85 73 75 78 83 77 71 68 69 65 65 69 74 65 62 65 67 65 70 69 67
94 100 108 114 106 103 101 93 90 89 90 87 82 89 87 81 77 75 81 86 89 88 94 76 65 71 76 65 61 59 61 65 66 74 73 70 67 68 66 67 67 70 74
89 90 93 100 109 110 108 106 100 99 95 92 90 92 93 82 78 79 84 80 69 71 64 66 71 58 59 60 62 65 61 61 64 71 68 68 70 69 69 69 72 73 76
91 92 93 94 95 99 106 106 100 95 103 108 101 105 99 85 78 79 81 74 62 61 64 57 58 62 65 58 62 64 65 66 64 67 70 70 68 76 79 76 77 79 83
87 88 90 93 95 96 97 95 95 92 91 91 94 101 85 81 85 82 80 77 71 66 56 57 61 65 61 66 65 63 68 69 71 73 70 70 75 79 80 80 83 84 84
82 82 83 86 88 90 92 94 92 89 89 88 81 80 80 65 66 71 86 83 69 74 65 59 59 58 56 57 57 60 69 59 70 71 79 70 73 86 83 78 81 85 79
76 75 76 78 79 81 82 84 86 88 86 88 84 79 79 62 59 63 60 67 66 73 75 59 62 61 61 69 64 67 63 61 67 69 69 69 73 76 77 79 85 83 78
64 64 66 69 70 71 73 74 73 71 80 83 88 92 82 77 71 68 64 67 71 71 71 70 66 72 70 69 83 81 74 70 72 69 67 68 71 76 83 82 78 75 77
57 56 55 56 59 61 63 63 62 62 64 69 75 87 90 95 86 78 71 70 71 65 68 66 67 71 76 78 67 65 70 68 70 73 82 82 77 71 73 76 78 80 83
50 53 54 53 51 52 51 51 52 52 52 55 61 68 77 79 82 77 73 73 73 63 59 63 62 56 54 53 55 57 57 59 62 67 79 76 75 77 75 75 76 77 77
44 43 40 38 39 40 40 41 41 41 42 44 50 56 63 67 71 74 76 78 78 73 70 67 66 67 66 65 65 66 65 68 65 63 68 69 71 72 74 74 74 74 71
28 26 24 22 21 21 24 26 28 28 28 29 35 42 50 58 62 67 74 77 82 82 73 71 75 77 79 76 72 72 73 77 74 67 64 68 71 71 72 71 68 66 63
19 15 11 6 4 6 9 12 14 16 18 22 29 37 44 50 55 59 62 64 65 66 67 71 71 68 72 67 69 71 65 64 64 61 60 61 62 61 61 61 60 59 61
22 16 10 9 9 8 8 7 9 10 10 14 20 24 29 30 34 44 54 61 64 66 66 62 60 59 59 61 60 60 57 53 51 52 53 53 53 53 55 56 56 58 60
15 16 14 11 10 12 12 14 16 14 12 11 10 12 15 19 22 25 32 40 46 51 48 51 53 52 50 50 50 47 51 52 51 50 52 54 54 53 53 54 55 56 57
19 16 12 12 13 14 15 12 10 13 13 11 13 15 19 20 20 20 20 22 26 29 34 37 39 40 41 42 44 43 44 44 43 44 45 46 48 50 51 51 51 54 58
28 22 17 14 12 9 7 6 7 7 8 11 15 15 19 20 21 23 25 24 26 25 26 27 29 33 37 40 42 43 45 44 43 42 42 42 42 43 45 49 53 58 62
Wind_Direction
254 253 253 256 260 258 258 261 264 257 250 246 245 247 249 250 247 249 256 268 268 267 268 268 271 272 272 272 272 271 270 271 272 271 272 271 271 277 280 283 287 289 289
251 246 246 251 253 256 255 252 252 254 252 256 256 251 250 249 252 257 264 267 264 263 267 268 272 274 273 270 269 268 270 272 272 271 271 273 277 281 284 286 288 289 290
252 250 248 251 251 253 253 249 247 246 245 248 250 251 255 257 262 264 266 265 262 263 266 270 272 272 271 271 269 268 267 268 268 271 275 280 282 284 285 286 287 289 287
247 246 243 245 245 245 246 249 251 249 250 252 252 252 256 260 261 269 271 269 269 267 269 271 273 273 268 266 267 267 268 270 271 272 274 277 280 282 282 281 282 281 282
251 249 244 242 242 244 245 249 251 250 251 254 259 257 262 263 265 268 273 272 268 269 268 269 271 276 271 263 262 263 265 267 269 271 273 275 278 280 279 279 279 281 280
263 260 256 254 249 248 251 254 255 261 263 261 262 261 261 262 267 268 267 271 270 270 270 271 274 273 273 264 263 264 266 267 269 272 273 274 275 278 279 276 275 276 278
268 270 268 263 262 262 266 263 263 258 260 263 259 258 258 259 265 265 264 266 271 272 270 269 271 274 267 265 265 263 264 266 267 271 270 271 270 271 276 272 274 277 278
264 266 265 264 263 260 260 260 260 259 258 262 266 265 259 262 262 261 260 262 266 266 268 265 267 269 268 266 263 262 263 267 266 267 267 267 268 269 270 273 273 277 278
264 264 263 261 257 255 254 258 256 254 254 256 258 260 260 254 252 258 263 265 265 263 262 264 268 267 267 262 261 262 262 265 267 264 268 266 271 268 268 270 273 273 282
263 260 260 257 256 259 256 253 255 258 259 254 252 254 257 260 261 266 271 268 262 260 264 260 264 270 260 263 259 262 263 264 266 260 260 266 267 267 271 271 274 275 277
269 264 261 259 258 255 260 261 259 256 255 252 256 253 255 260 264 268 272 267 262 265 264 262 261 262 257 258 256 260 259 265 263 259 261 265 269 267 271 275 276 279 276
271 270 268 266 265 265 265 263 263 257 257 254 255 255 254 259 261 267 264 260 259 257 259 266 264 254 256 254 257 256 260 258 263 255 258 269 268 271 276 273 277 282 280
269 268 266 265 264 263 263 263 262 259 254 255 254 255 256 258 257 260 261 261 256 253 255 249 249 254 256 252 255 253 258 261 258 258 267 273 270 270 271 276 276 278 279
274 270 266 265 263 263 263 262 260 257 254 253 255 255 258 253 252 254 258 254 251 253 245 250 249 248 252 255 257 251 262 257 257 261 268 267 264 268 272 276 273 276 277
276 274 271 268 265 262 260 261 261 260 255 251 247 246 244 240 246 248 249 253 252 250 249 247 244 248 255 251 256 259 263 261 261 263 270 269 271 275 267 266 272 274 276
280 278 275 271 268 265 262 258 258 258 256 250 248 237 234 237 244 254 254 253 255 255 247 244 248 248 249 250 250 252 253 256 258 264 258 266 270 263 263 266 267 270 280
284 281 277 273 268 265 263 261 257 256 254 253 251 246 237 239 248 252 251 256 252 248 248 248 253 255 249 248 254 252 252 254 257 258 260 265 270 263 263 265 270 276 281
287 285 282 277 272 267 263 261 259 254 251 250 249 250 249 250 251 250 249 251 249 245 244 246 255 259 254 253 252 250 248 252 255 256 260 264 265 265 264 270 272 275 278
287 285 282 277 271 266 263 261 259 257 253 248 243 243 243 244 248 244 246 244 244 241 244 251 255 246 247 254 253 248 250 250 251 254 259 262 264 265 268 272 275 278 279
294 289 284 278 271 265 260 259 260 258 252 247 244 237 236 233 238 236 239 237 237 241 245 244 246 247 248 254 258 266 268 265 263 263 263 267 269 269 271 275 276 277 279
307 298 292 285 275 266 261 263 263 261 255 245 241 238 236 233 230 233 238 241 242 245 244 247 248 249 247 254 260 265 267 269 269 267 265 267 269 269 271 273 274 277 277
334 326 318 321 357 354 319 302 291 279 266 251 242 237 235 232 230 229 231 233 238 241 240 245 247 248 253 259 262 263 259 261 261 262 265 267 267 269 271 272 271 273 275
5 14 24 6 341 322 306 310 309 303 278 252 244 246 245 245 243 242 237 237 237 235 239 242 243 245 249 252 253 254 256 257 258 260 263 264 266 269 269 270 272 275 279
357 1 4 351 322 311 297 296 300 297 278 265 247 226 218 218 226 233 238 241 242 243 242 243 244 245 246 247 249 251 250 253 257 260 263 264 264 266 268 271 275 279 283
6 1 345 325 311 299 296 297 286 280 261 248 259 249 234 231 236 240 244 248 239 239 239 240 241 242 244 246 249 251 254 255 257 261 263 264 265 268 271 275 281 284 288
34 23 9 349 334 326 310 298 285 283 266 250 248 243 237 238 243 249 257 255 243 242 236 242 247 246 247 249 250 252 254 256 258 260 261 263 267 274 280 283 285 288 290